FW8325 Weather Reports


Display with metric or nautical units.
time (UTC)temp
F
wind
direction
speed
MPH
gust
MPH
rain 1hr
in
rain 24hr
in
rain mn
in
humidity
%
barometer
mb
20260830235612 70 246 0.0 0.0 0.00 0.03 0.03 42 1017.5
20260830234619 70 94 0.0 3.0 0.00 0.03 0.03 49 1017.6
20260830233626 72 69 0.0 3.0 0.00 0.03 0.03 44 1017.5
20260830232634 72 55 0.0 0.0 0.00 0.03 0.03 45 1017.5
20260830231620 71 315 0.0 1.0 0.00 0.03 0.03 41 1017.4
20260830230612 70 302 0.0 5.0 0.00 0.03 0.03 43 1017.3
20260830225623 71 295 2.0 10.0 0.00 0.03 0.03 41 1017.4
20260830224651 71 244 2.0 12.0 0.00 0.03 0.03 39 1017.3
20260830223618 70 219 4.0 22.0 0.00 0.03 0.03 43 1017.4
20260830222629 70 205 2.0 3.0 0.00 0.03 0.03 43 1017.5
20260830221617 70 213 1.0 5.0 0.00 0.03 0.03 44 1017.7
20260830220624 70 236 0.0 3.0 0.00 0.03 0.03 47 1018.0
20260830215630 69 231 0.0 1.0 0.00 0.03 0.03 46 1018.0
20260830214619 68 275 0.0 2.0 0.00 0.03 0.03 47 1017.9
20260830213624 68 253 0.0 2.0 0.00 0.03 0.03 47 1018.1
20260830212628 67 226 1.0 21.0 0.00 0.03 0.03 51 1018.2
20260830211614 70 257 3.0 9.0 0.00 0.03 0.03 40 1018.1
20260830210625 70 258 0.0 12.0 0.00 0.03 0.03 39 1017.9
20260830205612 71 232 0.0 10.0 0.00 0.03 0.03 37 1017.9
20260830204619 72 310 0.0 9.0 0.00 0.03 0.03 36 1017.9
20260830203625 72 254 4.0 11.0 0.00 0.03 0.03 34 1018.1
20260830202615 72 207 3.0 17.0 0.00 0.03 0.03 38 1017.9
20260830201622 71 229 4.0 16.0 0.00 0.03 0.03 33 1018.0
20260830200627 71 232 2.0 17.0 0.00 0.03 0.03 37 1018.0
20260830195615 71 245 5.0 21.0 0.00 0.03 0.03 38 1018.0
20260830194620 71 263 9.0 18.0 0.00 0.03 0.03 37 1018.0
20260830193628 71 257 2.0 12.0 0.00 0.03 0.03 40 1018.2
20260830192613 70 225 1.0 8.0 0.00 0.03 0.03 40 1018.0
20260830191620 70 272 0.0 15.0 0.00 0.03 0.03 44 1018.1
20260830190647 69 215 3.0 9.0 0.00 0.03 0.03 43 1018.0
20260830185619 69 206 1.0 10.0 0.00 0.03 0.03 44 1018.2
20260830184626 69 250 1.0 10.0 0.00 0.03 0.03 44 1018.2
20260830183613 69 229 6.0 17.0 0.00 0.03 0.03 46 1018.2
20260830182621 69 262 2.0 15.0 0.00 0.03 0.03 49 1018.2
20260830181612 68 251 1.0 10.0 0.00 0.03 0.03 50 1018.0
20260830180616 68 266 0.0 16.0 0.00 0.03 0.03 49 1018.1
20260830175625 68 235 1.0 19.0 0.00 0.10 0.03 50 1018.0
20260830174633 68 222 6.0 14.0 0.00 0.10 0.03 49 1018.1
20260830173619 67 242 1.0 9.0 0.00 0.10 0.03 52 1018.2
20260830172630 67 240 6.0 16.0 0.00 0.10 0.03 51 1018.2
20260830171615 67 229 3.0 12.0 0.00 0.10 0.03 52 1018.0
20260830170623 67 232 2.0 17.0 0.00 0.10 0.03 54 1018.0
20260830165630 67 227 2.0 11.0 0.00 0.10 0.03 53 1018.0
20260830164620 66 243 1.0 14.0 0.00 0.10 0.03 52 1017.8
20260830163626 66 257 2.0 10.0 0.00 0.10 0.03 53 1018.0
20260830162612 66 244 1.0 9.0 0.00 0.10 0.03 52 1017.9
20260830161619 64 206 1.0 10.0 0.00 0.10 0.03 59 1017.9
20260830160611 64 152 1.0 6.0 0.00 0.10 0.03 62 1017.8
20260830155620 63 149 2.0 5.0 0.00 0.17 0.03 65 1017.9
20260830154628 61 173 0.0 0.0 0.00 0.17 0.03 68 1017.9
20260830153616 60 194 0.0 0.0 0.00 0.17 0.03 74 1017.9
20260830152628 59 212 0.0 0.0 0.00 0.17 0.03 77 1017.9
20260830151615 58 228 0.0 1.0 0.00 0.17 0.03 77 1017.8
20260830150623 58 228 0.0 0.0 0.00 0.17 0.03 77 1017.8
20260830145628 59 211 0.0 0.0 0.00 0.21 0.03 74 1017.6
20260830144617 58 144 0.0 2.0 0.00 0.21 0.03 76 1017.3
20260830143642 57 163 0.0 0.0 0.00 0.21 0.03 79 1017.5
20260830142626 59 228 1.0 10.0 0.00 0.21 0.03 75 1017.9
20260830141632 59 138 2.0 10.0 0.00 0.21 0.03 76 1017.3
20260830140615 58 169 0.0 2.0 0.00 0.21 0.03 75 1017.6
20260830135625 60 212 2.0 8.0 0.00 0.21 0.03 70 1018.3
20260830134612 57 113 1.0 7.0 0.00 0.21 0.03 76 1016.8
20260830133618 57 192 0.0 0.0 0.00 0.21 0.03 78 1017.6
20260830132624 58 201 0.0 3.0 0.00 0.21 0.03 75 1017.9
20260830131615 58 164 0.0 10.0 0.00 0.21 0.03 79 1017.7
20260830130622 58 126 3.0 8.0 0.00 0.21 0.03 80 1017.3
20260830125630 57 159 0.0 3.0 0.00 0.21 0.03 80 1017.2
20260830124618 57 238 0.0 0.0 0.00 0.21 0.03 79 1017.1
20260830123629 59 236 1.0 10.0 0.00 0.21 0.03 75 1016.9
20260830122617 57 134 1.0 7.0 0.00 0.21 0.03 83 1016.9
20260830121623 56 241 0.0 0.0 0.00 0.21 0.03 80 1017.6
20260830120624 55 255 0.0 0.0 0.00 0.21 0.03 81 1016.9
20260830115630 56 255 0.0 0.0 0.00 0.21 0.03 82 1016.9
20260830114622 56 255 0.0 0.0 0.00 0.21 0.03 80 1016.8
20260830113627 55 268 0.0 0.0 0.00 0.21 0.03 81 1016.7
20260830112613 55 207 0.0 0.0 0.00 0.21 0.03 81 1016.5
20260830111641 55 207 0.0 0.0 0.00 0.21 0.03 81 1016.7
20260830110631 55 221 0.0 0.0 0.00 0.21 0.03 80 1016.9
20260830105618 56 198 0.0 0.0 0.00 0.21 0.03 79 1017.0
20260830104625 57 183 0.0 0.0 0.00 0.21 0.03 77 1017.3
20260830103650 57 188 0.0 2.0 0.00 0.21 0.03 78 1017.4
20260830102619 56 196 0.0 0.0 0.00 0.21 0.03 79 1017.6
20260830101626 56 192 0.0 1.0 0.00 0.21 0.03 78 1017.5
20260830100613 57 205 1.0 6.0 0.00 0.21 0.03 76 1017.4
20260830095621 58 182 0.0 3.0 0.00 0.21 0.03 76 1017.3
20260830094625 56 133 0.0 0.0 0.00 0.21 0.03 81 1017.3
20260830093613 56 203 0.0 0.0 0.00 0.21 0.03 76 1017.1
20260830092618 56 207 0.0 2.0 0.00 0.21 0.03 76 1017.1
20260830091623 57 196 0.0 2.0 0.00 0.21 0.03 73 1017.0
20260830090613 56 250 0.0 0.0 0.00 0.21 0.03 75 1016.6
20260830085618 55 250 0.0 0.0 0.00 0.21 0.03 78 1016.5
20260830084625 54 290 0.0 0.0 0.01 0.21 0.03 80 1016.5
20260830083611 54 171 0.0 2.0 0.01 0.21 0.03 81 1016.5
20260830082617 55 219 1.0 5.0 0.03 0.21 0.03 78 1016.9
20260830081650 58 145 3.0 15.0 0.03 0.21 0.03 75 1017.0
20260830080613 60 144 5.0 14.0 0.03 0.21 0.03 75 1017.0
20260830075625 59 133 2.0 18.0 0.03 0.21 0.03 69 1016.6
20260830074612 61 225 12.0 32.0 0.02 0.20 0.02 70 1018.1
20260830073624 59 209 1.0 8.0 0.02 0.20 0.02 76 1017.8
20260830072630 59 233 0.0 2.0 0.00 0.18 0.00 74 1018.0
20260830071615 59 205 0.0 3.0 0.00 0.18 0.00 74 1017.3
20260830070642 60 179 0.0 0.0 0.00 0.18 0.00 72 1017.2
20260830065628 60 30 0.0 0.0 0.00 0.19 0.00 71 1017.3
20260830064620 60 29 0.0 1.0 0.00 0.19 0.00 72 1017.3
20260830063647 60 41 0.0 0.0 0.00 0.19 0.00 71 1017.3
20260830062613 59 94 0.0 0.0 0.00 0.19 0.00 72 1017.3
20260830061620 59 205 0.0 0.0 0.00 0.19 0.00 73 1017.5
20260830060622 59 215 0.0 0.0 0.00 0.19 0.00 68 1017.6
20260830055616 59 244 0.0 0.0 0.00 0.20 0.19 68 1017.6
20260830054621 58 261 0.0 0.0 0.00 0.20 0.19 69 1017.6
20260830053629 58 267 0.0 0.0 0.00 0.20 0.19 69 1017.6
20260830052616 59 266 0.0 0.0 0.00 0.20 0.19 69 1017.3
20260830051625 59 275 0.0 0.0 0.00 0.20 0.19 68 1017.0
20260830050630 60 274 0.0 0.0 0.00 0.20 0.19 67 1016.9
20260830045636 61 329 0.0 9.0 0.00 0.20 0.19 63 1017.1
20260830044619 60 336 3.0 12.0 0.00 0.20 0.19 63 1016.9
20260830043630 61 345 7.0 13.0 0.00 0.20 0.19 63 1016.9
20260830042637 61 336 0.0 4.0 0.00 0.20 0.19 69 1016.8
20260830041645 60 300 0.0 0.0 0.00 0.20 0.19 66 1016.8
20260830040611 61 275 0.0 0.0 0.00 0.20 0.19 65 1016.7
20260830035636 61 260 0.0 0.0 0.00 0.20 0.19 64 1016.5
20260830034623 61 231 0.0 2.0 0.00 0.20 0.19 65 1016.3
20260830033627 61 248 0.0 0.0 0.00 0.20 0.19 67 1016.6
20260830032615 61 294 0.0 0.0 0.00 0.20 0.19 67 1016.5
20260830031622 61 277 0.0 0.0 0.00 0.20 0.19 66 1016.5
20260830030633 62 277 0.0 0.0 0.00 0.20 0.19 65 1016.1
20260830025622 63 250 0.0 1.0 0.00 0.20 0.19 61 1016.1
20260830024631 63 216 0.0 1.0 0.00 0.20 0.19 62 1016.0
20260830023640 63 225 1.0 5.0 0.00 0.20 0.19 65 1016.1
20260830022626 63 211 1.0 3.0 0.00 0.20 0.19 63 1016.0
20260830021618 63 221 0.0 3.0 0.00 0.20 0.19 64 1016.1
20260830020625 64 200 2.0 10.0 0.00 0.20 0.19 62 1015.9
20260830015615 63 211 2.0 7.0 0.00 0.21 0.19 65 1015.8
20260830014622 64 207 2.0 10.0 0.00 0.21 0.19 65 1015.9
20260830013614 64 208 5.0 10.0 0.00 0.21 0.19 63 1015.9
20260830012621 65 209 5.0 13.0 0.00 0.21 0.19 62 1016.0
20260830011629 65 194 3.0 10.0 0.00 0.21 0.19 61 1016.0
20260830010636 66 198 3.0 7.0 0.00 0.21 0.19 60 1016.2
20260830005628 66 200 2.0 12.0 0.00 0.21 0.19 60 1016.2
20260830004616 67 177 2.0 8.0 0.00 0.21 0.19 61 1016.3
20260830003642 68 206 3.0 12.0 0.00 0.21 0.19 54 1016.5
20260830002628 68 205 3.0 14.0 0.00 0.21 0.19 51 1016.5
20260830001619 69 192 2.0 14.0 0.00 0.21 0.19 55 1016.3
20260830000621 69 209 2.0 10.0 0.00 0.21 0.19 53 1016.3